EW5676 Weather Reports


Display with metric or nautical units.
time (UTC)temp
F
wind
direction
speed
MPH
gust
MPH
rain 1hr
in
rain 24hr
in
rain mn
in
humidity
%
barometer
mb
20260904225146 80 304 1.0 3.0 0.00 0.00 0.00 69 1016.2
20260904224246 81 328 1.0 2.0 0.00 0.00 0.00 66 1016.3
20260904223347 81 317 2.0 5.0 0.00 0.00 0.00 65 1016.2
20260904221546 81 325 2.0 6.0 0.00 0.00 0.00 61 1016.2
20260904220647 82 292 1.0 4.0 0.00 0.00 0.00 61 1016.2
20260904215746 82 282 1.0 4.0 0.00 0.00 0.00 63 1016.1
20260904214846 82 286 2.0 4.0 0.00 0.00 0.00 63 1016.0
20260904213946 82 315 2.0 6.0 0.00 0.00 0.00 63 1016.0
20260904213047 82 343 3.0 6.0 0.00 0.00 0.00 62 1016.0
20260904212146 81 350 4.0 6.0 0.00 0.00 0.00 63 1016.1
20260904211246 81 320 4.0 9.0 0.00 0.00 0.00 61 1016.2
20260904210346 82 305 3.0 6.0 0.00 0.00 0.00 63 1016.3
20260904205446 82 320 3.0 6.0 0.00 0.00 0.00 61 1016.3
20260904204547 81 320 5.0 9.0 0.00 0.00 0.00 61 1016.3
20260904203646 82 303 3.0 8.0 0.00 0.00 0.00 58 1016.3
20260904202746 82 320 4.0 8.0 0.00 0.00 0.00 61 1016.3
20260904201846 82 324 4.0 9.0 0.00 0.00 0.00 59 1016.3
20260904200046 81 320 6.0 10.0 0.00 0.00 0.00 57 1016.4
20260904195146 81 314 5.0 9.0 0.00 0.00 0.00 57 1016.4
20260904192446 82 314 4.0 13.0 0.00 0.00 0.00 56 1016.8
20260904191546 81 319 5.0 12.0 0.00 0.00 0.00 58 1016.9
20260904190646 81 337 7.0 13.0 0.00 0.00 0.00 58 1016.8
20260904185746 81 326 7.0 13.0 0.00 0.00 0.00 58 1016.8
20260904184846 81 318 7.0 13.0 0.00 0.00 0.00 58 1016.7
20260904183947 81 323 5.0 12.0 0.00 0.00 0.00 60 1017.0
20260904181246 81 324 5.0 11.0 0.00 0.00 0.00 59 1016.7
20260904180346 81 316 7.0 14.0 0.00 0.00 0.00 59 1016.9
20260904173646 81 344 6.0 14.0 0.00 0.00 0.00 60 1016.7
20260904172746 80 340 10.0 18.0 0.00 0.00 0.00 61 1016.8
20260904171846 80 322 9.0 17.0 0.00 0.00 0.00 61 1016.8
20260904170946 80 326 8.0 14.0 0.00 0.00 0.00 64 1016.9
20260904165146 80 330 6.0 14.0 0.00 0.00 0.00 66 1016.9
20260904164246 81 331 6.0 14.0 0.00 0.00 0.00 68 1016.8
20260904163346 80 338 8.0 15.0 0.00 0.00 0.00 69 1016.8
20260904161547 80 315 8.0 16.0 0.00 0.00 0.00 74 1016.9
20260904160646 80 323 8.0 16.0 0.00 0.00 0.00 71 1017.0
20260904155747 80 326 10.0 19.0 0.00 0.00 0.00 73 1017.1
20260904153947 79 333 7.0 14.0 0.00 0.00 0.00 79 1017.1
20260904153046 79 312 6.0 13.0 0.00 0.00 0.00 80 1017.1
20260904152147 78 309 6.0 12.0 0.00 0.00 0.00 82 1017.2
20260904151247 78 295 4.0 8.0 0.00 0.00 0.00 83 1017.3
20260904150347 78 294 5.0 9.0 0.00 0.00 0.00 82 1017.2
20260904145446 78 305 4.0 11.0 0.00 0.00 0.00 81 1017.3
20260904144546 77 330 6.0 10.0 0.00 0.00 0.00 83 1017.3
20260904142747 77 313 5.0 9.0 0.00 0.00 0.00 83 1017.2
20260904141846 76 333 5.0 10.0 0.00 0.00 0.00 83 1017.2
20260904140946 76 320 4.0 9.0 0.00 0.00 0.00 85 1017.1
20260904134246 75 309 4.0 7.0 0.00 0.00 0.00 87 1017.1
20260904133346 75 329 5.0 10.0 0.00 0.00 0.00 89 1017.0
20260904132447 74 319 5.0 10.0 0.00 0.00 0.00 90 1017.0
20260904131547 74 322 5.0 14.0 0.00 0.00 0.00 90 1017.0
20260904130646 74 317 5.0 9.0 0.00 0.00 0.00 90 1017.0
20260904125746 73 325 5.0 10.0 0.00 0.00 0.00 91 1016.9
20260904123946 73 319 4.0 9.0 0.00 0.00 0.00 93 1016.9
20260904123046 73 323 4.0 10.0 0.00 0.00 0.00 94 1017.0
20260904122146 72 320 4.0 8.0 0.00 0.00 0.00 94 1017.0
20260904121246 72 313 4.0 9.0 0.00 0.00 0.00 94 1017.0
20260904120346 72 309 5.0 9.0 0.00 0.00 0.00 94 1016.9
20260904115446 72 310 5.0 10.0 0.00 0.00 0.00 94 1016.9
20260904114546 72 314 4.0 10.0 0.00 0.00 0.00 95 1016.9
20260904113647 72 312 6.0 11.0 0.00 0.00 0.00 95 1016.8
20260904112747 71 311 5.0 9.0 0.00 0.00 0.00 95 1016.8
20260904111846 71 305 5.0 10.0 0.00 0.00 0.00 95 1016.8
20260904110946 71 309 4.0 8.0 0.00 0.00 0.00 96 1016.8
20260904110046 71 316 4.0 8.0 0.00 0.00 0.00 96 1016.6
20260904105146 71 320 4.0 8.0 0.00 0.00 0.00 96 1016.6
20260904104246 71 310 3.0 7.0 0.00 0.00 0.00 96 1016.5
20260904103346 71 314 3.0 9.0 0.00 0.00 0.00 96 1016.3
20260904101547 71 316 1.0 3.0 0.00 0.00 0.00 96 1016.1
20260904100647 71 326 1.0 4.0 0.00 0.00 0.00 96 1015.9
20260904095747 71 0 0.0 0.0 0.00 0.00 0.00 96 1015.9
20260904094846 71 0 0.0 0.0 0.00 0.00 0.00 96 1015.9
20260904093946 71 359 0.0 1.0 0.00 0.00 0.00 96 1015.9
20260904093046 71 340 2.0 4.0 0.00 0.00 0.00 96 1016.0
20260904092146 71 306 1.0 3.0 0.00 0.00 0.00 96 1015.9
20260904091246 71 340 2.0 3.0 0.00 0.00 0.00 96 1016.0
20260904085447 71 0 0.0 0.0 0.00 0.00 0.00 96 1016.0
20260904084547 72 308 2.0 5.0 0.00 0.00 0.00 96 1016.1
20260904083646 71 315 3.0 7.0 0.00 0.00 0.00 96 1016.1
20260904082746 71 326 2.0 5.0 0.00 0.00 0.00 96 1016.3
20260904081847 71 327 0.0 4.0 0.00 0.00 0.00 96 1016.2
20260904080947 71 161 0.0 2.0 0.00 0.00 0.00 96 1015.9
20260904080046 71 221 0.0 2.0 0.00 0.00 0.00 96 1015.7
20260904075146 71 255 0.0 1.0 0.00 0.00 0.00 96 1015.7
20260904074246 71 0 0.0 0.0 0.00 0.00 0.00 96 1015.7
20260904071547 71 11 3.0 8.0 0.00 0.00 0.00 95 1015.9
20260904070646 71 15 3.0 8.0 0.00 0.00 0.00 95 1016.3
20260904064846 72 303 5.0 10.0 0.00 0.00 0.00 95 1016.4
20260904063946 73 298 3.0 7.0 0.00 0.00 0.00 95 1016.4
20260904063046 72 259 8.0 20.0 0.00 0.00 0.00 95 1016.1
20260904061246 74 298 5.0 22.0 0.00 0.00 0.00 93 1017.3
20260904060346 74 0 0.0 0.0 0.00 0.00 0.00 94 1016.5
20260904055446 74 36 0.0 3.0 0.00 0.00 0.00 94 1016.7
20260904054546 74 0 0.0 0.0 0.00 0.00 0.00 94 1016.9
20260904053646 74 0 0.0 0.0 0.00 0.00 0.00 94 1016.8
20260904052747 74 0 0.0 0.0 0.00 0.00 0.00 94 1017.0
20260904051846 74 0 0.0 0.0 0.00 0.00 0.00 94 1017.2
20260904050946 74 0 0.0 0.0 0.00 0.00 0.00 94 1017.1
20260904050046 74 0 0.0 0.0 0.00 0.00 0.00 94 1017.3
20260904044246 74 0 0.0 0.0 0.00 0.00 0.00 94 1017.6
20260904043346 74 239 0.0 1.0 0.00 0.00 0.00 94 1017.7
20260904042446 74 0 0.0 0.0 0.00 0.00 0.00 94 1017.6
20260904041546 73 0 0.0 0.0 0.00 0.00 0.00 94 1017.6
20260904035746 74 0 0.0 0.0 0.00 0.00 0.00 94 1017.8
20260904034846 74 0 0.0 0.0 0.00 0.00 0.00 94 1017.7
20260904033946 74 0 0.0 0.0 0.00 0.00 0.00 94 1017.8
20260904033046 74 0 0.0 0.0 0.00 0.00 0.00 94 1017.8
20260904032146 74 0 0.0 0.0 0.00 0.00 0.00 94 1017.7
20260904031246 74 0 0.0 0.0 0.00 0.00 0.00 94 1017.8
20260904030346 74 0 0.0 0.0 0.00 0.00 0.00 94 1017.8
20260904025447 74 0 0.0 0.0 0.00 0.00 0.00 94 1018.0
20260904024546 74 218 0.0 2.0 0.00 0.00 0.00 94 1018.2
20260904023646 74 0 0.0 0.0 0.00 0.00 0.00 94 1018.3
20260904022747 74 0 0.0 0.0 0.00 0.00 0.00 93 1018.4
20260904021846 74 0 0.0 0.0 0.00 0.00 0.00 93 1018.5
20260904020946 74 0 0.0 0.0 0.00 0.00 0.00 93 1018.5
20260904020047 74 0 0.0 0.0 0.00 0.00 0.00 93 1018.5
20260904015146 74 0 0.0 0.0 0.00 0.00 0.00 92 1018.6
20260904013347 75 138 0.0 1.0 0.00 0.00 0.00 92 1018.9
20260904012446 75 137 1.0 3.0 0.00 0.00 0.00 92 1018.8
20260904011546 75 144 0.0 2.0 0.00 0.00 0.00 92 1018.8
20260904010646 75 141 0.0 2.0 0.00 0.00 0.00 91 1018.9
20260904005746 75 0 0.0 0.0 0.00 0.00 0.00 91 1018.7
20260904003947 75 159 0.0 2.0 0.00 0.00 0.00 90 1018.4
20260904003046 76 192 1.0 3.0 0.00 0.00 0.00 89 1018.5
20260904002146 76 210 1.0 3.0 0.00 0.00 0.00 89 1018.6
20260904001246 76 227 1.0 4.0 0.00 0.00 0.00 88 1018.4
20260904000347 76 220 1.0 4.0 0.00 0.00 0.00 88 1018.2
20260903235446 76 197 1.0 3.0 0.00 0.00 0.00 88 1018.0
20260903234547 76 188 0.0 3.0 0.00 0.00 0.00 87 1017.9
20260903233646 77 157 1.0 4.0 0.00 0.00 0.00 87 1017.9
20260903232746 77 137 2.0 3.0 0.00 0.00 0.00 86 1018.0
20260903231846 77 136 1.0 3.0 0.00 0.00 0.00 86 1018.1
20260903230946 78 168 1.0 4.0 0.00 0.00 0.00 85 1018.2
20260903230046 78 164 0.0 4.0 0.00 0.00 0.00 84 1018.3